When you browse on this site, cookies collect data to enhance your experience and personalize the content and advertising you see.
Visit our Privacy Policy to learn more. By continuing to use the site, you agree to this use of cookies and data.
  • In Österreich
  • Länderverzeichnis
  • Für 7 Tage
  • Wassertemperatur
  • Wetterkarte
  • News
  • Widgets
  • user-avatar
    Anmelden

    Stündliche Wetter Tepepa

    Heute, 5 Juni, Freitag

    Zeit Temperatur Niederschläge Wind Luftdruck Luftfeuchtigkeit
    00:00 +15°C° 0.1 mm 1 m/S 584 mmHg 96%
    01:00 +14°C° 0.1 mm 1 m/S 584 mmHg 95%
    02:00 +14°C° 0.1 mm 1 m/S 583 mmHg 94%
    03:00 +14°C° 0 mm 1 m/S 583 mmHg 94%
    04:00 +13°C° 0 mm 1 m/S 583 mmHg 94%
    05:00 +13°C° 0 mm 1 m/S 583 mmHg 95%
    06:00 +15°C° 0 mm 1 m/S 584 mmHg 87%
    07:00 +18°C° 0 mm 1 m/S 585 mmHg 80%
    08:00 +19°C° 0 mm 1 m/S 586 mmHg 73%
    09:00 +19°C° 0.2 mm 2 m/S 586 mmHg 71%
    10:00 +20°C° 0.2 mm 2 m/S 586 mmHg 69%
    11:00 +21°C° 0.2 mm 3 m/S 586 mmHg 66%
    12:00 +21°C° 0.2 mm 3 m/S 586 mmHg 67%
    13:00 +20°C° 0.2 mm 3 m/S 585 mmHg 69%
    14:00 +20°C° 0.2 mm 3 m/S 585 mmHg 70%
    15:00 +19°C° 0.3 mm 3 m/S 584 mmHg 74%
    16:00 +18°C° 0.3 mm 2 m/S 584 mmHg 78%
    17:00 +17°C° 0.3 mm 2 m/S 583 mmHg 82%
    18:00 +16°C° 0.1 mm 2 m/S 584 mmHg 87%
    19:00 +15°C° 0.1 mm 1 m/S 584 mmHg 91%
    20:00 +14°C° 0.1 mm 1 m/S 584 mmHg 96%
    21:00 +14°C° 0.1 mm 1 m/S 584 mmHg 95%
    22:00 +14°C° 0.1 mm 1 m/S 584 mmHg 94%
    23:00 +14°C° 0.1 mm 1 m/S 584 mmHg 92%

    Morgen, 6 Juni, Samstag

    Zeit Temperatur Niederschläge Wind Luftdruck Luftfeuchtigkeit
    00:00 +13°C° 0 mm 1 m/S 584 mmHg 92%
    01:00 +13°C° 0 mm 1 m/S 583 mmHg 91%
    02:00 +12°C° 0 mm 1 m/S 582 mmHg 91%
    03:00 +12°C° 0 mm 1 m/S 582 mmHg 89%
    04:00 +12°C° 0 mm 1 m/S 582 mmHg 87%
    05:00 +12°C° 0 mm 1 m/S 582 mmHg 85%
    06:00 +14°C° 0 mm 1 m/S 583 mmHg 75%
    07:00 +18°C° 0 mm 1 m/S 585 mmHg 65%
    08:00 +20°C° 0 mm 1 m/S 586 mmHg 55%
    09:00 +20°C° 0 mm 2 m/S 587 mmHg 54%
    10:00 +21°C° 0 mm 2 m/S 587 mmHg 53%
    11:00 +22°C° 0 mm 3 m/S 587 mmHg 53%
    12:00 +22°C° 0.5 mm 3 m/S 586 mmHg 59%
    13:00 +21°C° 0.5 mm 3 m/S 585 mmHg 65%
    14:00 +20°C° 0.5 mm 3 m/S 584 mmHg 71%
    15:00 +19°C° 0.3 mm 2 m/S 584 mmHg 77%
    16:00 +18°C° 0.3 mm 2 m/S 583 mmHg 83%
    17:00 +17°C° 0.3 mm 2 m/S 583 mmHg 88%
    18:00 +16°C° 0.1 mm 1 m/S 583 mmHg 90%
    19:00 +16°C° 0.1 mm 1 m/S 584 mmHg 92%
    20:00 +15°C° 0.1 mm 1 m/S 584 mmHg 94%
    21:00 +15°C° 0 mm 1 m/S 584 mmHg 94%
    22:00 +14°C° 0 mm 1 m/S 584 mmHg 94%
    23:00 +13°C° 0 mm 1 m/S 583 mmHg 93%

    übermorgen, 7 Juni, Sonntag

    Zeit Temperatur Niederschläge Wind Luftdruck Luftfeuchtigkeit
    00:00 +13°C° 0 mm 1 m/S 583 mmHg 91%
    01:00 +13°C° 0 mm 1 m/S 582 mmHg 89%
    02:00 +12°C° 0 mm 2 m/S 582 mmHg 87%
    03:00 +12°C° 0 mm 2 m/S 582 mmHg 86%
    04:00 +12°C° 0 mm 2 m/S 582 mmHg 85%
    05:00 +12°C° 0 mm 2 m/S 582 mmHg 83%
    06:00 +15°C° 0 mm 1 m/S 583 mmHg 73%
    07:00 +19°C° 0 mm 1 m/S 585 mmHg 63%
    08:00 +22°C° 0 mm 1 m/S 586 mmHg 53%
    09:00 +23°C° 0 mm 2 m/S 586 mmHg 50%
    10:00 +24°C° 0 mm 2 m/S 586 mmHg 47%
    11:00 +25°C° 0 mm 3 m/S 587 mmHg 44%
    12:00 +25°C° 0 mm 3 m/S 586 mmHg 48%
    13:00 +24°C° 0 mm 3 m/S 585 mmHg 53%
    14:00 +24°C° 0 mm 3 m/S 585 mmHg 57%
    15:00 +22°C° 0.2 mm 3 m/S 584 mmHg 64%
    16:00 +21°C° 0.2 mm 2 m/S 584 mmHg 72%
    17:00 +19°C° 0.2 mm 2 m/S 583 mmHg 79%
    18:00 +19°C° 0.1 mm 1 m/S 583 mmHg 82%
    19:00 +18°C° 0.1 mm 1 m/S 583 mmHg 86%
    20:00 +16°C° 0.1 mm 1 m/S 583 mmHg 89%
    21:00 +16°C° 0 mm 1 m/S 583 mmHg 86%
    22:00 +16°C° 0 mm 1 m/S 583 mmHg 82%
    23:00 +16°C° 0 mm 1 m/S 583 mmHg 78%

    8 Juni, Montag

    Zeit Temperatur Niederschläge Wind Luftdruck Luftfeuchtigkeit
    00:00 +16°C° 0 mm 1 m/S 583 mmHg 77%
    01:00 +15°C° 0 mm 2 m/S 583 mmHg 77%
    02:00 +15°C° 0 mm 2 m/S 582 mmHg 76%
    03:00 +15°C° 0 mm 2 m/S 582 mmHg 77%
    04:00 +15°C° 0 mm 2 m/S 582 mmHg 78%
    05:00 +15°C° 0 mm 2 m/S 582 mmHg 78%
    06:00 +18°C° 0 mm 2 m/S 584 mmHg 70%
    07:00 +20°C° 0 mm 2 m/S 585 mmHg 62%
    08:00 +24°C° 0 mm 1 m/S 587 mmHg 53%
    09:00 +25°C° 0 mm 2 m/S 587 mmHg 49%
    10:00 +26°C° 0 mm 2 m/S 587 mmHg 45%
    11:00 +27°C° 0 mm 2 m/S 588 mmHg 41%
    12:00 +26°C° 0.7 mm 2 m/S 587 mmHg 49%
    13:00 +25°C° 0.7 mm 2 m/S 586 mmHg 57%
    14:00 +24°C° 0.7 mm 2 m/S 585 mmHg 64%
    15:00 +23°C° 0.7 mm 2 m/S 584 mmHg 67%
    16:00 +23°C° 0.7 mm 2 m/S 584 mmHg 69%
    17:00 +22°C° 0.7 mm 1 m/S 584 mmHg 71%
    18:00 +21°C° 0.1 mm 1 m/S 584 mmHg 74%
    19:00 +20°C° 0.1 mm 1 m/S 584 mmHg 76%
    20:00 +18°C° 0.1 mm 1 m/S 584 mmHg 78%
    21:00 +18°C° 0 mm 1 m/S 584 mmHg 77%
    22:00 +18°C° 0 mm 1 m/S 584 mmHg 75%
    23:00 +18°C° 0 mm 1 m/S 584 mmHg 73%

    9 Juni, Dienstag

    Zeit Temperatur Niederschläge Wind Luftdruck Luftfeuchtigkeit
    00:00 +18°C° 0 mm 1 m/S 584 mmHg 73%
    01:00 +16°C° 0 mm 2 m/S 583 mmHg 73%
    02:00 +16°C° 0 mm 2 m/S 583 mmHg 73%
    03:00 +16°C° 0 mm 2 m/S 583 mmHg 73%
    04:00 +16°C° 0 mm 2 m/S 583 mmHg 72%
    05:00 +15°C° 0 mm 2 m/S 583 mmHg 72%
    06:00 +18°C° 0 mm 2 m/S 585 mmHg 63%
    07:00 +22°C° 0 mm 1 m/S 586 mmHg 54%
    08:00 +25°C° 0 mm 1 m/S 588 mmHg 45%
    09:00 +26°C° 0 mm 2 m/S 588 mmHg 42%
    10:00 +27°C° 0 mm 3 m/S 588 mmHg 38%
    11:00 +28°C° 0 mm 3 m/S 589 mmHg 35%
    12:00 +28°C° 0 mm 4 m/S 588 mmHg 37%
    13:00 +27°C° 0 mm 4 m/S 587 mmHg 40%
    14:00 +27°C° 0 mm 4 m/S 587 mmHg 42%
    15:00 +26°C° 0.2 mm 4 m/S 586 mmHg 50%
    16:00 +24°C° 0.2 mm 3 m/S 586 mmHg 57%
    17:00 +23°C° 0.2 mm 2 m/S 585 mmHg 65%
    18:00 +20°C° 0.1 mm 2 m/S 585 mmHg 74%
    19:00 +19°C° 0.1 mm 1 m/S 585 mmHg 83%
    20:00 +16°C° 0.1 mm 1 m/S 584 mmHg 92%
    21:00 +16°C° 0 mm 1 m/S 585 mmHg 92%
    22:00 +16°C° 0 mm 1 m/S 585 mmHg 92%
    23:00 +15°C° 0 mm 1 m/S 585 mmHg 92%

    10 Juni, Mittwoch

    Zeit Temperatur Niederschläge Wind Luftdruck Luftfeuchtigkeit
    00:00 +15°C° 0 mm 1 m/S 585 mmHg 91%
    01:00 +15°C° 0 mm 1 m/S 585 mmHg 91%
    02:00 +14°C° 0 mm 1 m/S 584 mmHg 90%
    03:00 +14°C° 0 mm 1 m/S 584 mmHg 90%
    04:00 +14°C° 0 mm 1 m/S 584 mmHg 89%
    05:00 +13°C° 0 mm 1 m/S 584 mmHg 88%
    06:00 +15°C° 0 mm 1 m/S 585 mmHg 81%
    07:00 +18°C° 0 mm 1 m/S 587 mmHg 74%
    08:00 +20°C° 0 mm 1 m/S 588 mmHg 67%
    09:00 +20°C° 0.2 mm 2 m/S 588 mmHg 64%
    10:00 +21°C° 0.2 mm 3 m/S 588 mmHg 62%
    11:00 +22°C° 0.2 mm 4 m/S 589 mmHg 59%
    12:00 +22°C° 0.2 mm 4 m/S 588 mmHg 60%
    13:00 +22°C° 0.2 mm 4 m/S 588 mmHg 61%
    14:00 +21°C° 0.2 mm 4 m/S 587 mmHg 62%
    15:00 +20°C° 0.6 mm 3 m/S 587 mmHg 69%
    16:00 +19°C° 0.6 mm 3 m/S 586 mmHg 76%
    17:00 +17°C° 0.6 mm 3 m/S 586 mmHg 83%
    18:00 +16°C° 0.3 mm 2 m/S 586 mmHg 87%
    19:00 +16°C° 0.3 mm 2 m/S 586 mmHg 91%
    20:00 +15°C° 0.3 mm 1 m/S 586 mmHg 96%
    21:00 +14°C° 0 mm 1 m/S 586 mmHg 95%
    22:00 +14°C° 0 mm 1 m/S 586 mmHg 94%
    23:00 +14°C° 0 mm 1 m/S 586 mmHg 93%
    Mehr zeigen